SCP
2 2 3 3 4 5 5 5 6 6 6 4 3 3 2 2 2 2 2 3 3 2 2 1 1 1 1 1 2 2 1 1 1 1 1 1 1 1 1 1 1 1 1
2 3 3 3 4 5 6 6 6 6 6 5 4 4 3 3 2 2 2 2 3 2 2 2 2 2 2 2 2 2 2 2 2 1 1 1 1 1 1 1 1 1 1
3 3 3 4 4 5 6 7 7 6 6 5 5 5 5 4 3 2 3 3 3 2 2 2 2 2 2 2 3 3 2 2 2 2 2 1 1 1 1 1 1 1 1
3 3 4 5 5 6 6 7 7 7 6 5 5 5 6 5 4 3 3 3 3 3 2 2 2 3 3 3 3 3 2 2 2 2 2 2 1 1 1 1 1 1 1
3 4 5 6 7 7 7 7 8 8 7 5 5 6 6 5 4 3 4 4 4 3 3 3 3 3 3 3 3 3 2 2 2 2 2 2 1 1 1 1 1 1 1
3 4 5 8 9 10 9 9 10 9 7 5 5 5 6 6 5 5 5 5 5 4 4 4 4 4 3 3 3 3 3 2 2 2 2 2 1 1 1 1 1 1 1
4 4 5 7 10 11 12 12 13 11 8 6 5 6 6 7 6 6 5 5 5 5 4 4 5 4 4 3 3 3 3 3 3 2 2 2 1 1 1 2 1 1 1
4 4 5 6 9 11 13 15 16 14 11 9 8 8 7 7 6 6 5 5 6 5 5 5 4 4 4 3 3 3 3 3 3 3 2 2 2 2 2 2 2 2 1
5 5 6 7 8 10 13 17 18 16 13 11 11 10 8 7 6 5 5 5 5 5 5 4 4 4 3 3 3 4 4 4 4 3 3 2 2 2 2 3 3 2 2
7 8 9 9 8 9 13 16 17 15 13 12 12 10 9 8 6 5 5 5 6 6 5 3 3 3 3 3 4 4 4 4 4 3 3 2 3 3 3 3 3 3 3
10 11 12 12 10 10 13 14 13 11 10 12 13 12 10 8 6 5 6 7 7 6 5 4 3 3 3 3 4 4 4 4 3 3 3 3 3 3 3 3 3 3 3
12 13 15 15 13 11 11 11 9 7 7 9 12 14 12 9 7 6 7 9 9 7 5 4 3 3 3 3 3 3 3 3 3 3 3 2 2 3 3 3 3 3 3
13 14 17 17 14 11 10 9 8 7 6 7 10 13 14 12 9 8 9 10 10 8 5 3 3 3 3 3 3 2 2 2 3 3 3 3 3 3 4 4 4 4 4
13 15 16 16 13 10 9 9 9 8 7 7 9 12 15 15 12 10 11 12 11 8 5 4 3 3 2 3 3 3 3 3 3 3 4 4 4 4 5 5 5 6 6
12 13 14 13 12 10 9 9 9 8 8 8 9 12 15 16 13 12 13 13 11 8 6 4 3 2 2 2 3 3 3 4 4 4 4 4 4 5 6 6 7 8 9
10 11 12 12 12 11 11 11 10 9 8 9 9 11 14 15 13 13 14 14 11 8 6 4 4 3 3 2 2 3 4 4 4 5 5 5 5 5 6 7 7 7 8
11 12 12 13 13 13 14 14 13 11 10 10 10 11 12 13 13 13 14 13 11 8 6 5 5 5 3 2 2 3 4 4 5 5 6 7 6 7 8 8 8 8 8
15 15 14 13 13 13 14 16 16 14 12 11 10 11 11 12 13 14 13 12 11 9 7 6 5 5 4 2 2 2 4 5 5 6 7 8 8 9 10 11 11 11 10
17 15 13 12 11 11 12 14 15 13 11 10 9 9 10 11 15 16 14 12 11 9 7 6 5 4 3 3 2 3 4 5 5 6 7 7 8 8 9 11 13 13 11
14 13 12 11 11 10 11 11 12 11 10 9 9 9 9 11 15 16 14 12 11 9 7 6 6 5 4 3 3 3 5 6 7 7 8 6 6 6 7 9 12 11 9
11 11 12 13 13 12 11 11 10 10 9 9 10 9 10 11 12 13 11 10 10 9 7 6 6 5 5 4 3 3 4 6 7 8 8 6 4 3 3 5 7 7 6
10 10 12 16 18 16 14 13 11 11 10 10 10 9 9 9 9 9 9 8 8 8 7 6 6 7 7 5 4 3 3 4 6 6 6 5 3 1 1 1 2 3 3
8 8 10 15 20 20 17 15 13 12 11 10 9 8 8 8 8 8 8 7 7 6 6 6 6 7 8 6 4 3 2 2 3 4 4 4 2 1 1 1 1 2 3
5 5 6 10 16 20 19 16 13 11 10 9 8 8 8 9 9 9 7 6 6 6 6 5 6 7 7 6 5 4 3 2 2 3 3 3 2 2 2 2 2 3 4
4 3 3 4 9 14 16 14 12 10 8 7 7 8 8 9 9 8 7 5 5 6 5 4 5 6 5 4 4 5 5 4 3 4 4 3 3 3 3 4 4 5 5
3 3 3 3 5 8 10 10 10 9 7 6 7 7 8 9 8 7 6 4 4 4 3 3 4 5 4 4 4 5 6 5 4 5 5 4 3 3 4 4 5 6 6
Wind_Speed
14 14 13 13 12 10 9 8 7 6 5 4 4 3 3 2 2 3 4 4 3 3 3 2 2 1 1 1 2 1 1 1 1 1 0 0 1 2 2 2 2 2 3
15 14 13 13 13 12 10 9 7 7 6 4 3 3 3 3 3 2 4 4 4 4 4 3 2 2 2 2 2 2 2 2 2 2 1 1 1 1 3 2 2 2 2
17 16 14 13 13 13 12 10 9 8 7 6 4 3 3 2 2 3 3 4 4 4 2 3 3 2 3 3 3 3 3 2 2 2 2 2 2 1 1 2 2 2 2
16 16 15 14 14 14 13 10 9 8 7 7 6 6 5 4 4 3 3 4 4 4 3 3 3 3 2 2 4 3 3 3 3 2 3 2 1 1 1 1 2 3 3
16 16 15 14 14 14 13 11 10 8 8 7 6 5 4 3 3 3 4 3 3 4 3 3 3 3 2 3 3 2 3 3 3 3 2 3 2 3 2 2 2 2 2
16 16 15 13 12 13 12 12 11 9 8 7 7 6 5 4 3 4 4 4 3 3 4 4 3 3 3 2 2 3 3 3 3 3 2 2 2 3 2 3 3 3 2
15 15 15 15 12 12 12 12 12 10 9 8 7 6 5 4 4 4 4 3 3 3 4 4 3 3 2 3 3 3 3 3 3 3 3 3 3 2 2 2 2 2 2
14 15 14 14 12 13 12 12 12 10 9 8 6 5 5 4 4 4 4 4 3 2 3 3 3 3 3 3 3 3 3 3 4 4 4 3 3 3 3 3 2 2 2
14 14 14 13 12 11 11 12 11 10 9 9 7 6 5 4 4 4 4 2 1 2 3 3 3 3 3 3 3 2 3 3 4 4 4 4 3 3 3 2 3 3 2
11 13 13 12 11 11 9 11 12 10 9 8 7 7 6 4 3 3 3 2 2 1 2 3 3 3 3 4 3 3 3 3 3 3 3 4 3 3 3 3 2 2 2
9 10 11 10 10 10 10 9 10 10 9 8 6 6 6 5 5 3 3 2 2 2 2 2 3 3 4 4 3 4 4 4 3 4 4 4 4 3 3 2 2 2 2
7 8 10 10 8 8 8 8 8 9 9 8 7 6 5 5 5 4 3 3 2 2 2 2 2 3 4 4 4 5 4 4 4 4 4 4 4 4 3 3 3 2 2
6 7 8 9 7 7 7 7 7 8 8 8 7 6 6 6 5 4 4 3 3 3 3 2 3 3 3 3 3 3 3 3 4 4 4 4 4 4 3 4 3 2 3
6 5 6 7 6 6 6 7 7 7 7 7 7 7 6 5 4 4 4 4 4 3 3 3 3 3 3 3 3 4 4 4 4 4 4 4 4 4 4 4 3 3 3
6 5 6 6 5 5 5 5 5 5 5 6 6 6 5 5 4 4 4 4 4 4 3 3 3 4 4 4 4 4 4 4 4 4 3 3 3 3 2 3 2 2 3
5 4 6 6 6 5 4 4 4 4 5 5 5 5 5 5 5 4 4 4 4 4 3 3 3 4 4 3 4 4 3 3 4 4 3 3 4 3 3 3 2 2 3
4 4 4 4 4 4 4 3 3 3 3 3 4 4 4 4 4 4 4 4 4 3 3 3 4 4 3 3 3 3 3 4 4 4 3 4 3 3 3 3 4 3 4
5 4 3 4 4 4 3 3 2 2 3 3 3 3 3 3 3 3 3 3 3 3 3 4 4 3 3 3 3 3 4 4 4 4 3 3 2 2 2 2 3 3 3
5 4 3 3 4 3 2 2 2 1 2 2 2 3 3 3 2 2 2 2 2 3 3 3 3 3 3 3 3 3 3 4 5 5 4 4 3 3 3 3 3 4 3
5 4 4 4 3 2 2 2 2 1 0 0 1 1 1 2 3 2 2 2 2 3 3 3 3 3 3 4 4 4 4 4 4 4 3 4 4 4 4 4 5 5 5
5 4 4 4 3 2 2 2 2 1 1 1 0 0 1 2 2 2 1 1 2 2 3 4 3 3 3 3 4 5 4 4 4 3 2 2 3 4 5 5 4 5 4
5 4 4 4 3 3 3 2 2 2 1 1 0 0 1 2 1 1 1 2 2 2 3 3 4 3 2 2 3 4 5 5 4 3 2 1 3 4 5 4 5 5 5
4 4 4 4 3 3 2 2 2 2 2 2 2 2 2 2 1 2 2 2 2 2 3 3 3 2 1 2 3 4 4 5 3 2 1 2 3 3 4 6 6 5 4
3 3 3 3 3 2 2 1 1 1 2 2 2 2 2 2 1 1 2 2 2 2 2 2 2 2 1 0 0 1 2 2 2 2 1 1 2 3 4 3 4 4 3
2 3 2 2 2 2 2 2 2 1 2 2 2 2 2 2 2 2 2 2 1 1 2 2 2 2 2 1 1 1 2 2 1 1 2 2 2 2 3 3 3 3 3
2 2 2 2 3 2 2 3 2 1 2 3 3 2 2 2 2 2 1 1 1 2 2 2 1 1 0 1 1 2 2 2 2 1 2 3 3 3 3 3 3 3 2
Wind_Direction
171 167 169 165 162 159 160 165 168 160 163 168 174 173 172 176 165 160 148 155 170 170 172 183 163 187 167 170 178 156 176 192 171 145 154 251 205 187 180 193 177 181 171
170 170 173 170 167 165 165 167 169 168 175 172 178 173 170 178 169 164 150 165 176 185 189 186 196 190 190 198 189 184 206 210 179 169 170 196 209 232 209 189 190 193 185
172 172 176 176 171 170 171 174 174 173 181 172 174 174 163 184 167 165 160 176 187 194 203 185 205 206 207 200 199 204 206 216 213 198 193 196 202 188 197 204 192 190 191
172 173 177 179 177 174 174 169 170 171 176 178 186 188 187 190 180 167 169 178 189 192 197 193 204 227 221 214 214 201 212 216 229 220 217 213 204 182 191 205 192 194 193
172 173 178 178 178 175 172 169 167 172 176 185 189 198 198 186 173 161 170 178 186 195 198 198 197 213 220 226 221 213 219 223 226 228 216 213 223 219 200 209 196 193 195
169 168 171 168 174 173 171 168 164 171 176 185 190 197 203 191 178 173 176 189 191 200 199 197 199 209 214 224 223 223 215 224 234 240 231 208 214 211 203 209 208 199 201
167 167 167 168 172 171 168 165 164 173 179 186 191 191 196 192 185 185 191 206 194 192 199 198 196 205 209 217 216 227 227 224 231 238 241 233 231 222 208 205 216 210 199
169 167 169 167 172 172 167 163 164 171 178 183 184 185 182 192 194 202 205 206 202 186 175 190 202 204 214 222 215 225 229 228 233 241 243 243 241 229 218 204 197 222 224
171 167 167 167 169 171 167 162 160 168 177 182 179 179 183 195 197 195 204 211 188 187 180 195 209 213 223 237 228 233 238 234 229 235 237 238 238 228 230 224 206 201 219
165 162 162 165 168 167 160 160 161 168 173 178 181 181 187 191 187 194 207 197 193 187 191 201 209 217 227 235 232 240 236 235 240 241 249 244 246 231 225 233 233 213 206
161 156 150 151 156 158 159 157 158 163 169 175 177 180 180 185 185 194 203 195 193 186 202 214 220 222 229 236 236 241 241 239 249 253 249 245 252 251 242 237 230 224 209
139 137 137 138 149 154 154 158 161 169 171 172 172 174 175 178 187 194 199 193 188 195 207 211 227 238 235 231 235 243 246 239 243 251 254 250 243 238 247 244 235 227 215
103 114 127 134 148 151 153 158 163 169 170 169 168 169 182 186 191 192 193 194 193 202 218 217 230 245 245 238 239 243 250 249 249 246 248 248 243 240 241 240 238 230 226
103 111 124 124 131 142 148 155 166 169 168 168 170 176 183 184 186 186 190 195 199 204 214 226 232 240 246 248 253 247 247 246 250 251 248 248 244 240 238 237 231 234 235
122 124 123 126 132 130 139 144 153 158 162 168 174 176 174 173 180 189 196 198 203 211 212 223 235 240 242 243 249 251 244 245 249 249 240 234 231 234 236 243 238 233 234
111 117 116 132 137 134 136 135 150 152 156 167 172 169 174 180 189 195 200 203 205 213 215 220 231 242 247 243 236 244 252 251 251 246 236 229 218 206 200 202 215 226 233
107 102 112 120 119 123 122 127 117 126 145 157 163 163 176 187 192 201 205 212 216 218 227 228 229 237 242 230 232 244 247 251 251 248 242 247 236 204 197 198 205 219 232
100 86 85 99 102 98 106 110 127 132 146 159 163 162 180 195 196 197 210 222 227 228 235 236 233 235 243 227 228 247 246 251 251 246 244 244 246 235 209 218 232 231 236
78 79 83 88 104 101 91 107 138 152 170 170 176 175 182 191 196 202 219 231 234 241 242 241 239 232 235 235 233 234 251 247 249 246 242 228 219 204 203 217 236 241 239
70 59 56 58 75 90 116 116 112 99 110 219 214 196 191 199 205 199 214 229 237 247 253 245 243 231 221 222 224 229 251 252 252 251 243 227 202 188 201 224 229 238 238
65 59 54 51 58 68 96 108 96 86 64 21 347 203 180 211 211 192 211 230 244 251 255 249 246 237 224 215 216 222 246 257 259 255 241 212 179 199 219 229 237 237 242
53 54 61 49 45 61 71 70 45 24 22 32 352 342 277 260 239 211 243 243 238 246 257 259 253 237 209 207 228 235 241 260 264 258 245 203 191 213 225 227 238 249 246
60 52 57 50 39 49 53 48 24 16 2 352 346 341 297 268 261 242 253 251 245 248 257 257 257 254 224 192 211 236 251 255 263 283 283 218 206 221 229 231 236 240 235
56 53 66 53 33 31 23 14 15 17 346 331 323 303 284 269 274 260 260 259 258 263 275 272 268 278 280 265 215 243 253 275 266 271 295 240 237 258 256 234 230 228 228
49 35 38 36 17 21 11 3 17 2 308 295 294 291 270 255 266 266 282 283 301 273 262 279 281 267 260 270 256 242 251 256 265 284 242 222 222 234 241 234 223 218 216
45 40 12 356 354 358 10 0 348 321 287 282 278 273 278 277 259 242 265 7 252 217 208 228 261 310 360 128 175 216 209 212 216 226 248 231 226 231 231 232 231 223 219